Total_Precipitation_Accumulation
0.36 0.33 0.23 0.21 0.19 0.22 0.26 0.29 0.53 0.83 1.24 1.61 1.76 1.85 1.86 1.92 1.84 1.59 1.33 1.12 0.95 0.85 0.82 0.75 0.66 0.57 0.49 0.45 0.42 0.42 0.46 0.48 0.49 0.47 0.46 0.41 0.36 0.34 0.30 0.26 0.24 0.23 0.21 0.20
0.32 0.30 0.33 0.37 0.33 0.34 0.35 0.43 0.60 0.91 1.33 1.54 1.75 1.87 1.79 1.81 1.73 1.66 1.52 1.35 1.18 1.04 0.96 0.86 0.71 0.59 0.55 0.54 0.50 0.47 0.48 0.48 0.43 0.38 0.36 0.33 0.31 0.27 0.24 0.24 0.24 0.23 0.23 0.21
0.43 0.30 0.45 0.73 0.54 0.46 0.50 0.58 0.78 1.09 1.32 1.29 1.35 1.53 1.62 1.66 1.63 1.65 1.60 1.52 1.39 1.27 1.17 1.05 0.90 0.78 0.72 0.68 0.58 0.54 0.55 0.50 0.45 0.41 0.36 0.29 0.25 0.25 0.24 0.25 0.25 0.22 0.18 0.19
0.48 0.57 0.99 0.97 0.62 0.57 0.63 0.72 0.70 0.83 0.92 1.01 1.08 1.18 1.27 1.36 1.52 1.68 1.68 1.58 1.48 1.34 1.23 1.16 1.04 0.90 0.76 0.64 0.55 0.54 0.55 0.48 0.42 0.40 0.36 0.30 0.28 0.29 0.25 0.25 0.26 0.25 0.21 0.20
0.64 0.91 1.14 1.00 0.66 0.65 0.91 1.04 0.69 0.64 0.69 0.71 0.76 0.89 1.21 1.35 1.49 1.63 1.63 1.56 1.48 1.34 1.23 1.18 1.05 0.87 0.72 0.66 0.59 0.56 0.50 0.43 0.38 0.35 0.34 0.30 0.28 0.27 0.24 0.25 0.26 0.25 0.22 0.22
0.77 1.10 1.41 1.31 0.63 0.43 0.79 1.35 0.84 0.65 0.66 0.74 0.87 1.06 1.12 1.05 1.10 1.30 1.46 1.55 1.49 1.30 1.13 1.03 0.86 0.70 0.63 0.60 0.56 0.51 0.40 0.33 0.31 0.32 0.30 0.26 0.23 0.23 0.22 0.24 0.26 0.24 0.23 0.24
0.87 1.19 1.33 0.74 0.41 0.51 1.11 1.32 1.00 0.83 0.79 0.89 1.07 1.12 0.91 0.81 0.91 1.05 1.20 1.30 1.25 1.13 1.00 0.83 0.66 0.59 0.58 0.50 0.44 0.36 0.28 0.26 0.27 0.29 0.29 0.25 0.24 0.25 0.25 0.25 0.29 0.29 0.27 0.25
1.01 1.31 1.31 0.51 0.38 0.69 0.87 0.73 0.70 0.66 0.61 0.66 0.66 0.63 0.63 0.71 0.85 0.97 1.04 1.04 0.99 0.94 0.84 0.70 0.60 0.59 0.59 0.53 0.42 0.33 0.32 0.30 0.29 0.29 0.19 0.17 0.27 0.29 0.26 0.30 0.33 0.32 0.30 0.28
0.99 1.15 0.90 0.46 0.36 0.39 0.45 0.52 0.51 0.51 0.46 0.49 0.51 0.54 0.55 0.60 0.72 0.80 0.82 0.79 0.73 0.64 0.62 0.59 0.55 0.57 0.58 0.52 0.39 0.38 0.43 0.42 0.35 0.29 0.25 0.20 0.23 0.26 0.26 0.28 0.26 0.22 0.21 0.20
0.69 0.69 0.57 0.43 0.35 0.29 0.29 0.35 0.34 0.35 0.38 0.45 0.52 0.52 0.49 0.50 0.53 0.58 0.60 0.59 0.58 0.55 0.55 0.51 0.47 0.45 0.48 0.42 0.38 0.46 0.50 0.45 0.38 0.35 0.31 0.26 0.23 0.18 0.21 0.20 0.19 0.18 0.17 0.17
0.86 0.70 0.60 0.52 0.41 0.32 0.28 0.26 0.25 0.29 0.33 0.37 0.39 0.40 0.38 0.39 0.40 0.39 0.40 0.44 0.47 0.45 0.42 0.37 0.33 0.32 0.30 0.29 0.32 0.45 0.49 0.43 0.37 0.29 0.27 0.29 0.23 0.13 0.11 0.09 0.06 0.09 0.10 0.10
0.95 0.74 0.74 0.63 0.46 0.37 0.36 0.37 0.36 0.29 0.27 0.28 0.29 0.29 0.29 0.32 0.34 0.32 0.30 0.33 0.36 0.35 0.30 0.27 0.24 0.25 0.22 0.19 0.21 0.31 0.37 0.34 0.28 0.22 0.21 0.20 0.20 0.17 0.08 0.05 0.04 0.03 0.04 0.05
0.68 0.50 0.55 0.52 0.52 0.59 0.56 0.45 0.34 0.26 0.21 0.21 0.24 0.23 0.24 0.26 0.29 0.27 0.26 0.26 0.26 0.25 0.20 0.18 0.19 0.18 0.15 0.14 0.14 0.21 0.26 0.23 0.17 0.14 0.15 0.16 0.19 0.26 0.27 0.15 0.05 0.03 0.04 0.05
0.57 0.51 0.58 0.65 0.69 0.60 0.47 0.32 0.23 0.20 0.19 0.19 0.22 0.25 0.23 0.20 0.21 0.24 0.29 0.24 0.18 0.16 0.15 0.14 0.14 0.13 0.11 0.09 0.11 0.13 0.13 0.12 0.11 0.13 0.11 0.10 0.11 0.14 0.24 0.29 0.25 0.18 0.09 0.06
0.67 0.61 0.56 0.47 0.37 0.35 0.30 0.22 0.19 0.18 0.15 0.16 0.17 0.21 0.19 0.18 0.19 0.20 0.21 0.15 0.11 0.10 0.10 0.09 0.10 0.10 0.08 0.07 0.08 0.09 0.09 0.10 0.09 0.08 0.07 0.06 0.07 0.08 0.12 0.17 0.22 0.24 0.20 0.13
0.59 0.45 0.31 0.26 0.26 0.25 0.21 0.18 0.15 0.13 0.11 0.12 0.13 0.15 0.14 0.12 0.12 0.13 0.12 0.08 0.08 0.08 0.07 0.06 0.06 0.06 0.05 0.05 0.06 0.08 0.08 0.04 0.03 0.04 0.05 0.05 0.05 0.06 0.08 0.11 0.17 0.21 0.20 0.15
0.34 0.29 0.23 0.23 0.22 0.19 0.16 0.12 0.10 0.08 0.08 0.11 0.10 0.10 0.09 0.08 0.09 0.11 0.08 0.06 0.06 0.06 0.06 0.05 0.04 0.04 0.04 0.04 0.05 0.04 0.04 0.03 0.01 0.02 0.04 0.05 0.04 0.04 0.05 0.07 0.11 0.16 0.13 0.10
0.16 0.13 0.12 0.12 0.12 0.13 0.11 0.08 0.07 0.07 0.06 0.06 0.06 0.06 0.06 0.05 0.07 0.07 0.05 0.04 0.04 0.05 0.05 0.04 0.03 0.03 0.02 0.02 0.03 0.02 0.02 0.02 0.02 0.03 0.03 0.03 0.02 0.01 0.02 0.04 0.08 0.11 0.12 0.10
0.07 0.05 0.05 0.06 0.06 0.07 0.07 0.05 0.06 0.05 0.04 0.03 0.03 0.04 0.05 0.03 0.03 0.03 0.03 0.03 0.03 0.04 0.04 0.03 0.02 0.02 0.02 0.01 0.01 0.01 0.01 0.01 0.01 0.01 0.01 0.00 0.00 0.01 0.01 0.02 0.05 0.07 0.09 0.11
0.04 0.05 0.04 0.04 0.03 0.03 0.04 0.03 0.03 0.04 0.03 0.02 0.02 0.03 0.03 0.02 0.02 0.02 0.02 0.03 0.03 0.02 0.02 0.01 0.02 0.02 0.01 0.00 0.00 0.00 0.00 0.00 0.00 0.00 0.00 0.00 0.00 0.01 0.01 0.01 0.02 0.03 0.05 0.09
0.04 0.04 0.04 0.03 0.03 0.04 0.04 0.04 0.03 0.02 0.03 0.03 0.03 0.03 0.03 0.02 0.01 0.02 0.03 0.03 0.02 0.02 0.02 0.02 0.02 0.02 0.01 0.00 0.00 0.00 0.00 0.00 0.00 0.00 0.00 0.00 0.00 0.01 0.01 0.01 0.01 0.02 0.03 0.05
0.06 0.04 0.05 0.05 0.04 0.05 0.04 0.03 0.03 0.03 0.02 0.02 0.02 0.02 0.02 0.02 0.02 0.02 0.02 0.03 0.02 0.02 0.01 0.01 0.01 0.01 0.00 0.00 0.00 0.00 0.00 0.00 0.00 0.00 0.00 0.00 0.01 0.01 0.02 0.02 0.03 0.03 0.03 0.03
0.08 0.05 0.06 0.06 0.08 0.07 0.05 0.04 0.03 0.02 0.02 0.01 0.01 0.01 0.01 0.01 0.01 0.02 0.03 0.02 0.01 0.02 0.01 0.01 0.01 0.01 0.01 0.00 0.00 0.00 0.00 0.00 0.00 0.01 0.01 0.01 0.01 0.02 0.02 0.03 0.03 0.03 0.03 0.03
0.11 0.08 0.06 0.06 0.06 0.08 0.09 0.07 0.05 0.04 0.02 0.01 0.01 0.01 0.01 0.01 0.02 0.01 0.01 0.01 0.01 0.02 0.01 0.01 0.02 0.02 0.01 0.01 0.00 0.00 0.00 0.01 0.01 0.01 0.01 0.01 0.02 0.02 0.02 0.02 0.02 0.02 0.03 0.03
0.14 0.10 0.07 0.07 0.08 0.08 0.08 0.06 0.05 0.04 0.03 0.03 0.02 0.01 0.01 0.01 0.02 0.01 0.01 0.02 0.03 0.02 0.02 0.02 0.01 0.01 0.01 0.01 0.01 0.01 0.01 0.01 0.01 0.01 0.01 0.02 0.01 0.02 0.02 0.02 0.02 0.02 0.03 0.05
0.23 0.20 0.16 0.13 0.10 0.07 0.05 0.03 0.04 0.06 0.05 0.05 0.03 0.01 0.01 0.01 0.01 0.02 0.03 0.03 0.02 0.03 0.02 0.02 0.02 0.02 0.01 0.01 0.01 0.01 0.01 0.02 0.02 0.02 0.02 0.02 0.02 0.02 0.02 0.02 0.03 0.04 0.05 0.07
0.28 0.25 0.23 0.17 0.10 0.05 0.04 0.04 0.04 0.04 0.05 0.05 0.04 0.03 0.01 0.01 0.01 0.02 0.02 0.02 0.02 0.02 0.02 0.01 0.02 0.02 0.02 0.02 0.01 0.01 0.01 0.02 0.01 0.02 0.02 0.03 0.03 0.03 0.03 0.03 0.04 0.05 0.06 0.07